This is the latest recevied weather packets stored in our database for station/object PP5EO-15. If no packets are shown the sender has not sent any weather packets the latest 10 day(s).
| Time | Temp. | Humidity | Pressure | Rain* | Wind** | Luminosity | Snow |
|---|---|---|---|---|---|---|---|
| 1777404206 | 27.78° C | 43% | 1016.3 hPa | - | - | - | - |
| 1777403612 | 28.89° C | 39% | 1016.3 hPa | - | - | - | - |
| 1777403019 | 29.44° C | 35% | 1016.1 hPa | - | - | - | - |
| 1777402421 | 30° C | 33% | 1016.1 hPa | - | - | - | - |
| 1777401826 | 30.56° C | 33% | 1016.1 hPa | - | - | - | - |
| 1777401231 | 31.11° C | 32% | 1016.1 hPa | - | - | - | - |
| 1777400636 | 31.67° C | 31% | 1016.1 hPa | - | - | - | - |
| 1777400042 | 31.67° C | 30% | 1016.1 hPa | - | - | - | - |
| 1777399446 | 32.22° C | 30% | 1016.2 hPa | - | - | - | - |
| 1777398852 | 32.22° C | 30% | 1016.2 hPa | - | - | - | - |
| 1777398256 | 32.22° C | 29% | 1016.2 hPa | - | - | - | - |
| 1777397661 | 31.67° C | 30% | 1016.3 hPa | - | - | - | - |
| 1777397066 | 31.67° C | 30% | 1016.4 hPa | - | - | - | - |
| 1777396471 | 31.11° C | 30% | 1016.5 hPa | - | - | - | - |
| 1777395876 | 31.11° C | 31% | 1016.7 hPa | - | - | - | - |
| 1777395281 | 30.56° C | 31% | 1016.8 hPa | - | - | - | - |
| 1777394688 | 30.56° C | 32% | 1016.9 hPa | - | - | - | - |
| 1777394091 | 30.56° C | 31% | 1017.2 hPa | - | - | - | - |
| 1777393496 | 30.56° C | 31% | 1017.3 hPa | - | - | - | - |
| 1777392901 | 30.56° C | 32% | 1017.3 hPa | - | - | - | - |
| 1777392006 | 30.56° C | 31% | 1017.6 hPa | - | - | - | - |
| 1777391411 | 30.56° C | 31% | 1017.7 hPa | - | - | - | - |
| 1777390816 | 31.11° C | 31% | 1017.8 hPa | - | - | - | - |
| 1777390221 | 31.67° C | 29% | 1017.9 hPa | - | - | - | - |
| 1777389626 | 32.78° C | 27% | 1017.9 hPa | - | - | - | - |
* Rain since midnight (hover to see other rain measurements)
** Current wind speed in m/s (hover to see current wind gust speed)